CW8122 Weather Reports


time (UTC)temp
C
wind
direction
speed
KPH
gust
KPH
rain 1hr
cm
rain 24hr
cm
rain mn
cm
humidity
%
barometer
mb
20260508075212 11 323 4.8 8.0 0.00 0.00 0.00 24 1017.9
20260508073713 11 306 1.6 4.8 0.00 0.00 0.00 23 1018.1
20260508073213 11 307 3.2 4.8 0.00 0.00 0.00 23 1018.2
20260508071712 12 258 0.0 0.0 0.00 0.00 0.00 23 1018.3
20260508071212 12 258 0.0 0.0 0.00 0.00 0.00 22 1018.3
20260508070213 12 258 0.0 0.0 0.00 0.00 0.00 22 1018.3
20260508065713 12 258 0.0 4.8 0.00 0.00 0.00 22 1018.4
20260508064212 12 297 1.6 3.2 0.00 0.00 0.00 21 1018.4
20260508063713 12 297 1.6 4.8 0.00 0.00 0.00 21 1018.3
20260508062712 12 283 1.6 3.2 0.00 0.00 0.00 21 1018.3
20260508062213 13 252 1.6 4.8 0.00 0.00 0.00 20 1018.4
20260508060714 13 200 0.0 4.8 0.00 0.00 0.00 20 1018.3
20260508053213 15 253 3.2 4.8 0.00 0.00 0.00 17 1018.2
20260508052713 15 234 4.8 8.0 0.00 0.00 0.00 17 1018.2
20260508052213 15 213 3.2 8.0 0.00 0.00 0.00 16 1018.2
20260508051713 15 245 3.2 4.8 0.00 0.00 0.00 16 1018.2
20260508050212 15 214 4.8 9.7 0.00 0.00 0.00 16 1018.2
20260508045712 15 230 3.2 9.7 0.00 0.00 0.00 16 1018.4
20260508044213 15 219 1.6 4.8 0.00 0.00 0.00 16 1018.1
20260508042712 16 280 0.0 1.6 0.00 0.00 0.00 15 1018.2
20260508042213 16 280 0.0 3.2 0.00 0.00 0.00 15 1018.2
20260508040712 16 288 3.2 4.8 0.00 0.00 0.00 14 1018.3
20260508040212 16 283 1.6 4.8 0.00 0.00 0.00 14 1018.2
20260508035712 17 292 3.2 8.0 0.00 0.00 0.00 13 1018.2
20260508034713 17 297 1.6 8.0 0.00 0.00 0.00 13 1018.1
20260508033214 17 296 3.2 8.0 0.00 0.00 0.00 12 1017.8
20260508032712 18 296 1.6 9.7 0.00 0.00 0.00 12 1017.7
20260508031712 18 303 3.2 9.7 0.00 0.00 0.00 11 1017.6
20260508031212 18 304 3.2 9.7 0.00 0.00 0.00 11 1017.5
20260508030713 18 287 3.2 9.7 0.00 0.00 0.00 10 1017.4
20260508030213 19 300 3.2 9.7 0.00 0.00 0.00 10 1017.4
20260508025712 19 301 4.8 11.3 0.00 0.00 0.00 10 1017.4
20260508025212 19 303 3.2 11.3 0.00 0.00 0.00 10 1017.3
20260508024713 20 297 1.6 8.0 0.00 0.00 0.00 10 1017.2
20260508022212 21 300 1.6 8.0 0.00 0.00 0.00 9 1016.9
20260508020712 21 326 1.6 8.0 0.00 0.00 0.00 9 1016.7
20260508020212 21 305 3.2 8.0 0.00 0.00 0.00 9 1016.6
20260508014712 22 297 0.0 11.3 0.00 0.00 0.00 10 1016.6
20260508014213 22 239 1.6 12.9 0.00 0.00 0.00 12 1016.5
20260508013712 22 270 3.2 12.9 0.00 0.00 0.00 12 1016.5
20260508013213 22 159 4.8 9.7 0.00 0.00 0.00 13 1016.3
20260508012212 22 225 3.2 9.7 0.00 0.00 0.00 13 1016.2
20260508010712 23 158 4.8 12.9 0.00 0.00 0.00 13 1016.1
20260508005712 23 159 6.4 12.9 0.00 0.00 0.00 12 1016.1
20260508002712 23 169 4.8 16.1 0.00 0.00 0.00 11 1016.1
20260507235713 23 181 8.0 19.3 0.00 0.00 0.00 10 1016.3
20260507234212 24 155 9.7 19.3 0.00 0.00 0.00 11 1016.4
20260507231712 23 151 9.7 20.9 0.00 0.00 0.00 10 1016.7
20260507231212 23 166 9.7 22.5 0.00 0.00 0.00 10 1016.7
20260507230712 24 162 12.9 22.5 0.00 0.00 0.00 11 1016.8
20260507230212 23 159 11.3 19.3 0.00 0.00 0.00 11 1016.9
20260507224712 23 160 3.2 19.3 0.00 0.00 0.00 10 1017.1
20260507224212 24 183 11.3 19.3 0.00 0.00 0.00 9 1017.1
20260507223713 24 176 9.7 25.7 0.00 0.00 0.00 10 1017.1
20260507223212 23 165 8.0 25.7 0.00 0.00 0.00 10 1017.1
20260507222213 23 158 9.7 19.3 0.00 0.00 0.00 11 1017.3
20260507220712 23 160 6.4 14.5 0.00 0.00 0.00 12 1017.6
20260507220213 23 159 8.0 19.3 0.00 0.00 0.00 13 1017.7
20260507213713 23 133 8.0 20.9 0.00 0.00 0.00 14 1018.2
20260507213212 23 137 9.7 22.5 0.00 0.00 0.00 14 1018.4
20260507212712 23 188 12.9 22.5 0.00 0.00 0.00 15 1018.5
20260507212212 23 162 9.7 20.9 0.00 0.00 0.00 15 1018.6
20260507210712 23 118 9.7 19.3 0.00 0.00 0.00 16 1019.0
20260507205712 22 147 11.3 19.3 0.00 0.00 0.00 16 1019.4
20260507205214 22 166 9.7 16.1 0.00 0.00 0.00 15 1019.5
20260507204212 22 267 4.8 16.1 0.00 0.00 0.00 15 1019.7
20260507203213 22 262 4.8 16.1 0.00 0.00 0.00 15 1019.8
20260507200712 22 162 6.4 11.3 0.00 0.00 0.00 17 1020.4
20260507200212 22 314 6.4 14.5 0.00 0.00 0.00 17 1020.4
20260507193711 21 238 4.8 14.5 0.00 0.00 0.00 18 1020.9
20260507191212 21 81 3.2 12.9 0.00 0.00 0.00 19 1021.4
20260507190712 20 64 6.4 16.1 0.00 0.00 0.00 20 1021.5
20260507190212 20 109 3.2 16.1 0.00 0.00 0.00 21 1021.6
20260507185212 19 216 6.4 14.5 0.00 0.00 0.00 21 1021.8
20260507184712 20 212 6.4 14.5 0.00 0.00 0.00 20 1021.9
20260507184212 21 239 4.8 9.7 0.00 0.00 0.00 21 1022.0
20260507183212 20 312 0.0 11.3 0.00 0.00 0.00 21 1022.2
20260507182712 20 80 1.6 14.5 0.00 0.00 0.00 21 1022.3
20260507181712 19 52 4.8 12.9 0.00 0.00 0.00 23 1022.4
20260507180712 17 135 1.6 9.7 0.00 0.00 0.00 25 1022.7
20260507173213 18 262 3.2 9.7 0.00 0.00 0.00 25 1023.3
20260507172712 18 6 4.8 11.3 0.00 0.00 0.00 26 1023.4
20260507171712 17 56 1.6 9.7 0.00 0.00 0.00 28 1023.6
20260507170712 17 54 4.8 11.3 0.00 0.00 0.00 29 1023.7
20260507165712 16 29 6.4 14.5 0.00 0.00 0.00 30 1023.9
20260507162212 14 351 8.0 14.5 0.00 0.00 0.00 39 1024.3
20260507161212 14 31 6.4 19.3 0.00 0.00 0.00 40 1024.6
20260507160712 13 38 8.0 19.3 0.00 0.00 0.00 42 1024.6
20260507155712 13 27 8.0 19.3 0.00 0.00 0.00 43 1024.6
20260507155213 13 36 9.7 19.3 0.00 0.00 0.00 44 1024.7
20260507154712 12 17 11.3 19.3 0.00 0.00 0.00 46 1024.7
20260507154212 12 8 6.4 14.5 0.00 0.00 0.00 48 1024.8
20260507152712 11 345 14.5 20.9 0.00 0.00 0.00 50 1025.0
20260507150712 10 7 9.7 22.5 0.00 0.00 0.00 53 1025.1
20260507144711 9 345 12.9 24.1 0.00 0.00 0.00 58 1025.1
20260507143212 8 340 11.3 19.3 0.00 0.00 0.00 62 1025.3
20260507142211 8 348 12.9 20.9 0.00 0.00 0.00 63 1025.3
20260507140713 7 2 12.9 22.5 0.00 0.00 0.00 66 1025.2
20260507140212 7 354 14.5 24.1 0.00 0.00 0.00 66 1025.3
20260507135713 7 349 11.3 24.1 0.00 0.00 0.00 67 1025.4
20260507135212 7 341 16.1 22.5 0.00 0.00 0.00 67 1025.4
20260507133712 6 355 11.3 24.1 0.00 0.00 0.00 70 1025.3
20260507133212 6 346 11.3 24.1 0.00 0.00 0.00 70 1025.3
20260507131712 6 342 12.9 24.1 0.00 0.00 0.00 72 1025.2
20260507125712 5 340 9.7 20.9 0.00 0.00 0.00 72 1025.1
20260507125212 5 351 11.3 19.3 0.00 0.00 0.00 72 1025.1
20260507123712 5 357 12.9 20.9 0.00 0.00 0.00 70 1025.2
20260507123213 5 357 9.7 19.3 0.00 0.00 0.00 70 1025.1
20260507122712 5 0 9.7 19.3 0.00 0.00 0.00 68 1025.1
20260507122211 5 358 9.7 19.3 0.00 0.00 0.00 68 1025.1
20260507121712 5 344 11.3 19.3 0.00 0.00 0.00 68 1024.9
20260507120712 5 339 9.7 16.1 0.00 0.00 0.00 68 1024.8
20260507120212 5 354 11.3 16.1 0.00 0.00 0.00 68 1024.8
20260507115212 5 353 9.7 16.1 0.00 0.00 0.00 68 1024.8
20260507114712 5 342 9.7 16.1 0.00 0.00 0.00 67 1024.7
20260507113712 5 342 8.0 16.1 0.00 0.00 0.00 66 1024.8
20260507112712 5 340 8.0 16.1 0.00 0.00 0.00 65 1024.8
20260507112212 5 335 9.7 14.5 0.00 0.00 0.00 65 1024.8
20260507111712 5 340 9.7 14.5 0.00 0.00 0.00 64 1024.8
20260507111212 5 340 8.0 14.5 0.00 0.00 0.00 63 1024.9
20260507110711 5 344 8.0 14.5 0.00 0.00 0.00 62 1024.8
20260507104712 6 16 3.2 9.7 0.00 0.00 0.00 58 1024.8
20260507102212 6 351 11.3 19.3 0.00 0.00 0.00 55 1024.7
20260507100211 6 337 8.0 12.9 0.00 0.00 0.00 51 1024.6
20260507095212 6 334 8.0 14.5 0.00 0.00 0.00 47 1024.5
20260507094713 6 321 6.4 11.3 0.00 0.00 0.00 47 1024.5
20260507093712 6 335 4.8 9.7 0.00 0.00 0.00 43 1024.4
20260507092712 6 349 4.8 9.7 0.00 0.00 0.00 39 1024.3
20260507091711 7 354 8.0 12.9 0.00 0.00 0.00 38 1024.2
20260507090712 7 356 6.4 14.5 0.00 0.00 0.00 37 1024.2
20260507085212 7 356 6.4 11.3 0.00 0.00 0.00 35 1024.3
20260507083712 8 344 4.8 14.5 0.00 0.00 0.00 34 1024.1
20260507082712 8 340 8.0 14.5 0.00 0.00 0.00 34 1024.0
20260507081212 8 359 8.0 14.5 0.00 0.00 0.00 36 1023.8